[[{"header":{"parameterUnit":"m.s-1","parameterCategory":1,"la1":30.2991,"la2":30.254,"lo1":-89.0895,"lo2":-89.0444,"dy":0.0017,"dx":0.0017,"nx":28,"ny":28,"refTime":"2023-11-14T03:00:00:Z","depth":0,"parameterNumber":2,"parameterNumberName":"U-component_of_WINDS"},"data":[0,0,0,0,0,0,0,0,0,0,0,0,0,0,0,0,0,0,0,0,0,0,0,0,0,0,0,0,0,0,0,0,0,0,0,0,0,0,0,0,0,0,0,0,0,0,0,0,0,0,0,0,0,0,0,0,0,0,-6.8434,-6.8435,0,-6.8551,-6.8553,-6.8554,-6.8423,-6.8418,-6.8413,-6.8409,-6.8528,-6.8536,-6.8543,0,0,0,0,0,0,0,0,0,0,0,0,0,-6.8095,-6.8101,-6.8433,-6.8435,-6.8436,-6.8551,-6.8553,-6.8554,-6.8424,-6.8418,-6.8412,-6.8406,-6.8525,-6.8535,-6.8544,0,0,0,0,0,0,0,0,0,0,0,0,0,-6.823,-6.8104,-6.8433,-6.8385,-6.8382,-6.8551,-6.8553,-6.8555,-6.8425,-6.8418,-6.841,-6.8403,-6.8522,-6.8534,-6.8545,-6.8766,0,0,-6.8581,-6.8586,0,0,0,0,0,0,0,0,-6.8223,-6.8243,-6.8391,-6.8389,-6.8386,-6.8465,-6.8477,-6.8626,-6.8427,-6.8409,-6.8408,-6.84,-6.8513,-6.8525,-6.8563,-6.8772,-6.8777,-6.8582,-6.8589,-6.8594,-6.8597,0,0,0,0,0,0,0,-6.8213,-6.8237,-6.848,-6.8393,-6.839,-6.8357,-6.8368,-6.8504,-6.8501,-6.841,-6.8401,-6.8417,-6.851,-6.8552,-6.8565,-6.8779,-6.8582,-6.8592,-6.8599,-6.8604,-6.9176,-6.9184,0,0,0,0,0,0,-6.821,-6.823,-6.8476,-6.8483,-6.8284,-6.837,-6.8382,-6.8447,-6.8499,-6.85,-6.8423,-6.841,-6.8536,-6.8552,-6.8569,-6.8833,-6.8594,-6.8605,-6.8612,-6.9168,-6.9178,-6.9187,0,0,0,0,0,0,-6.8203,-6.8233,-6.8471,-6.8354,-6.8382,-6.8383,-6.8458,-6.8453,-6.8495,-6.8509,-6.8508,-6.8467,-6.8531,-6.8552,-6.8719,-6.8835,-6.861,-6.8621,-6.9158,-6.9171,-6.9182,-6.9362,0,0,0,0,0,0,-6.8194,-6.8231,-6.8316,-6.8357,-6.8389,-6.862,-6.8465,-6.8461,-6.8516,-6.8501,-6.855,-6.8551,-6.8527,-6.8702,-6.873,-6.8847,-6.863,-6.9148,-6.9164,-6.9179,-6.9345,-6.9379,-6.9407,0,0,0,0,0,-6.8182,-6.8361,-6.832,-6.8351,-6.8495,-6.8627,-6.8645,-6.8614,-6.8526,-6.8611,-6.862,-6.8549,-6.8817,-6.872,-6.8751,-6.8873,-6.9141,-6.916,-6.9177,-6.9332,-6.9372,-6.9406,0,0,0,0,0,0,-6.8332,-6.8365,-6.8321,-6.8519,-6.8571,-6.8605,-6.8711,-6.8658,-6.8736,-6.8718,-6.8675,-6.8687,-6.8865,-6.8885,-6.8776,-6.909,-6.8964,-6.899,-6.9071,-6.911,-6.914,-6.9132,-6.864,0,0,0,0,0,-6.8388,-6.8494,-6.8516,-6.8689,-6.8717,-6.871,-6.8767,-6.8738,-6.8791,-6.8812,-6.8833,-6.8886,-6.8982,-6.9047,-6.9136,-6.9347,-6.9356,-6.9446,-6.9477,-6.9502,-6.9525,-6.964,-6.968,-6.9247,-6.9247,-6.9247,0,0,-6.8505,-6.8536,-6.8605,-6.872,-6.8757,-6.8867,-6.873,-6.8851,-6.8933,-6.883,-6.8989,-6.9007,-6.9063,-6.9254,-6.9338,-6.9276,-6.9647,-6.9525,-6.9545,-6.9555,-6.9663,-6.9704,-6.974,-6.926,-6.9258,-6.9256,0,0,-6.8775,-6.8809,-6.8957,-6.8997,-6.9056,-6.905,-6.9086,-6.9128,-6.9136,-6.9295,-6.922,-6.9316,-6.9482,-6.9526,-6.957,-6.9858,-6.9797,-6.9888,-7.0049,-7.0162,-7.0196,-7.0226,-7.033,-7.0368,-6.991,-6.9911,-6.9911,0,-6.8913,-6.9077,-6.9039,-6.9168,-6.9221,-6.9133,-6.9283,-6.9323,-6.9408,-6.9447,-6.9375,-6.9583,-6.9615,-6.9815,-6.9885,-6.9923,-6.9963,-6.9883,-7.0194,-7.0224,-7.0251,-7.035,-7.0389,-6.9921,-6.992,-6.9919,-6.9918,0,-6.9244,-6.9359,-6.9471,-6.9557,-6.9622,-6.976,-6.9744,-6.9814,-6.978,-6.9781,-6.9945,-6.998,-7.0075,-7.012,-7.0087,-7.0317,-7.0276,-7.02,-7.0073,-7.0304,-7.0396,-7.0434,-6.9937,-6.9933,-6.993,-6.9927,0,0,-6.9613,-6.9676,-6.9719,-6.9757,-6.9815,-6.9903,-7.0037,-7.0131,-7.0193,-7.0254,-7.0367,-7.0509,-7.044,-7.049,-7.0461,-7.056,-7.0788,-7.0472,-7.0472,-7.0531,-7.1044,-7.1103,-7.1147,-7.0747,-7.0754,-7.0759,-7.104,0,-6.9886,-7.012,-7.009,-7.0315,-7.0421,-7.0339,-7.0456,-7.0505,-7.051,-7.06,-7.0605,-7.0708,-7.0607,-7.0637,-7.0731,-7.074,-7.0891,-7.0719,-7.0852,-7.0857,-7.0843,-7.1195,-7.1257,-7.1521,-7.1076,-7.1082,-7.1086,0,-7.0235,-7.0311,-7.0546,-7.059,-7.0633,-7.0739,-7.0823,-7.091,-7.0964,-7.096,-7.1018,-7.0971,-7.1106,-7.0975,-7.1161,-7.1045,-7.1097,-7.111,-7.112,-7.1133,-7.0987,-7.122,-7.1604,-7.1645,-7.1142,-7.1138,-7.1134,0,-7.0484,-7.0643,-7.0805,-7.084,-7.0894,-7.0971,-7.0997,-7.1043,-7.1102,-7.1175,-7.1213,-7.13,-7.1349,-7.1418,-7.1397,-7.1304,-7.1589,-7.1455,-7.159,-7.1592,-7.1656,-7.1652,-7.2056,-7.1686,-7.1686,-7.1685,-7.1684,0,-7.0793,-7.094,-7.0918,-7.1018,-7.1181,-7.1145,-7.1307,-7.1323,-7.1365,-7.1466,-7.1399,-7.1496,-7.1461,-7.1556,-7.154,-7.1698,-7.1719,-7.1721,-7.1716,-7.1729,-7.1729,-7.1764,-7.1746,-7.1695,-7.1693,-7.1691,-7.1689,0,-7.1098,-7.1089,-7.126,-7.1298,-7.131,-7.1429,-7.1461,-7.1555,-7.1554,-7.1684,-7.1712,-7.1712,-7.182,-7.1805,-7.1925,-7.1914,-7.2111,-7.2082,-7.2093,-7.2088,-7.2224,-7.2213,-7.2666,-7.2725,-7.2315,-7.2319,-7.2322,0,-7.1297,-7.1409,-7.1459,-7.1523,-7.1554,-7.1657,-7.1717,-7.1686,-7.1751,-7.1821,-7.1907,-7.2009,-7.2089,-7.2265,-7.2276,-7.2368,-7.2342,-7.2494,-7.2355,-7.2365,-7.2346,-7.2341,-7.2353,-7.2522,-7.2527,-7.2531,-7.2534,0,-7.1652,-7.1642,-7.1731,-7.1821,-7.1894,-7.1962,-7.2023,-7.2079,-7.2053,-7.213,-7.224,-7.2302,-7.2425,-7.2528,-7.2615,-7.264,-7.2585,-7.2577,-7.2614,-7.2629,-7.2633,-7.2635,-7.2171,-7.2568,-7.2564,-7.2562,-7.256,-7.2559,-7.1912,-7.2008,-7.2059,-7.2161,-7.2204,-7.2263,-7.2353,-7.2365,-7.2456,-7.2555,-7.253,-7.2655,-7.2706,-7.2816,-7.2851,-7.2949,-7.2893,-7.2945,-7.2959,-7.2973,-7.299,-7.2616,-7.2964,-7.2963,-7.2962,-7.2961,-7.296,0,-7.2265,-7.2293,-7.2388,-7.2476,-7.2557,-7.2496,-7.2561,-7.2633,-7.2744,-7.2796,-7.2877,-7.3004,-7.3103,-7.3122,-7.3216,-7.3291,-7.3268,-7.3317,-7.3312,-7.332,-7.3034,-7.2994,-7.3334,-7.3334,-7.3334,-7.3334,-7.3334,-7.3334,-7.2458,-7.2619,-7.2615,-7.2796,-7.2823,-7.2946,-7.2988,-7.3043,-7.3084,-7.323,-7.3312,-7.3323,-7.3363,-7.346,-7.3548,-7.3551,-7.359,-7.365,-7.3644,-7.3377,-7.3339,-7.3304,-7.3266,-7.3659,-7.3659,-7.3921,-7.3924,-7.3926]},{"header":{"parameterUnit":"m.s-1","parameterCategory":1,"la1":30.2991,"la2":30.254,"lo1":-89.0895,"lo2":-89.0444,"dy":0.0017,"dx":0.0017,"nx":28,"ny":28,"refTime":"2023-11-14T03:00:00:Z","depth":0,"parameterNumber":3,"parameterNumberName":"V-component_of_WINDS"},"data":[0,0,0,0,0,0,0,0,0,0,0,0,0,0,0,0,0,0,0,0,0,0,0,0,0,0,0,0,0,0,0,0,0,0,0,0,0,0,0,0,0,0,0,0,0,0,0,0,0,0,0,0,0,0,0,0,0,0,-4.4468,-4.4468,0,-4.444,-4.444,-4.444,-4.4367,-4.4366,-4.4364,-4.4363,-4.4335,-4.4335,-4.4336,0,0,0,0,0,0,0,0,0,0,0,0,0,-4.4459,-4.446,-4.4469,-4.4468,-4.4468,-4.444,-4.444,-4.444,-4.4368,-4.4366,-4.4364,-4.4362,-4.4334,-4.4335,-4.4336,0,0,0,0,0,0,0,0,0,0,0,0,0,-4.4451,-4.446,-4.4469,-4.4429,-4.4425,-4.4441,-4.444,-4.444,-4.4368,-4.4366,-4.4363,-4.4361,-4.4334,-4.4335,-4.4336,-4.4389,0,0,-4.4339,-4.434,0,0,0,0,0,0,0,0,-4.4451,-4.4451,-4.4435,-4.4431,-4.4427,-4.4405,-4.4426,-4.4423,-4.4369,-4.439,-4.4363,-4.436,-4.436,-4.4359,-4.4358,-4.4387,-4.4386,-4.4339,-4.434,-4.434,-4.4341,0,0,0,0,0,0,0,-4.4452,-4.4452,-4.4457,-4.4435,-4.443,-4.4412,-4.4408,-4.4425,-4.4388,-4.4388,-4.4382,-4.438,-4.4357,-4.4358,-4.4357,-4.4386,-4.4339,-4.434,-4.4341,-4.4341,-4.4454,-4.4457,0,0,0,0,0,0,-4.4458,-4.4453,-4.4458,-4.4457,-4.4434,-4.4414,-4.441,-4.4414,-4.4388,-4.4381,-4.4382,-4.4377,-4.4357,-4.4356,-4.4356,-4.4414,-4.434,-4.4341,-4.4342,-4.4452,-4.4455,-4.4457,0,0,0,0,0,0,-4.4458,-4.4459,-4.4459,-4.4453,-4.4452,-4.4417,-4.4422,-4.4415,-4.4415,-4.4383,-4.4376,-4.4389,-4.4355,-4.4355,-4.4381,-4.4412,-4.4342,-4.4343,-4.4449,-4.4453,-4.4456,-4.4533,0,0,0,0,0,0,-4.4458,-4.446,-4.448,-4.4454,-4.4452,-4.4485,-4.4424,-4.4416,-4.4417,-4.441,-4.4388,-4.4382,-4.4353,-4.4379,-4.4382,-4.4413,-4.4344,-4.4446,-4.4451,-4.4455,-4.4527,-4.4538,-4.4548,0,0,0,0,0,-4.4458,-4.4503,-4.4481,-4.4482,-4.4476,-4.4487,-4.4486,-4.4451,-4.442,-4.4439,-4.4419,-4.4383,-4.4409,-4.4383,-4.4385,-4.4416,-4.4444,-4.4449,-4.4455,-4.4522,-4.4536,-4.4548,0,0,0,0,0,0,-4.4534,-4.4499,-4.4474,-4.4512,-4.4503,-4.4475,-4.4498,-4.4467,-4.4467,-4.446,-4.4418,-4.4413,-4.4445,-4.4433,-4.4405,-4.4465,-4.442,-4.4427,-4.4471,-4.4484,-4.4494,-4.4496,-4.4344,0,0,0,0,0,-4.4555,-4.4566,-4.4535,-4.4571,-4.4568,-4.4534,-4.4537,-4.4511,-4.45,-4.4496,-4.4477,-4.4468,-4.4473,-4.4478,-4.4482,-4.4525,-4.4519,-4.4548,-4.4558,-4.4567,-4.4573,-4.4593,-4.4605,-4.4475,-4.4475,-4.4475,0,0,-4.4598,-4.458,-4.459,-4.4586,-4.4576,-4.4588,-4.4531,-4.4547,-4.4556,-4.4499,-4.4521,-4.4508,-4.4494,-4.4529,-4.4543,-4.452,-4.4607,-4.4574,-4.4581,-4.4582,-4.46,-4.4612,-4.4623,-4.4479,-4.4478,-4.4478,0,0,-4.4683,-4.4672,-4.47,-4.469,-4.4675,-4.4652,-4.4659,-4.4636,-4.4624,-4.4646,-4.4603,-4.4613,-4.4624,-4.4616,-4.4613,-4.4694,-4.4661,-4.4697,-4.4751,-4.4771,-4.4782,-4.479,-4.4818,-4.4829,-4.4702,-4.4702,-4.4703,0,-4.4739,-4.4756,-4.4718,-4.4736,-4.4735,-4.4683,-4.4711,-4.4704,-4.4692,-4.4692,-4.4666,-4.4678,-4.4665,-4.4696,-4.4716,-4.4716,-4.4722,-4.4698,-4.4783,-4.4792,-4.4799,-4.4825,-4.4836,-4.4707,-4.4706,-4.4706,-4.4705,0,-4.4825,-4.4837,-4.4861,-4.485,-4.4851,-4.4874,-4.484,-4.4846,-4.482,-4.4799,-4.4822,-4.4805,-4.4804,-4.4809,-4.4784,-4.4837,-4.4822,-4.4791,-4.4745,-4.4817,-4.484,-4.485,-4.4713,-4.4711,-4.471,-4.4709,0,0,-4.4957,-4.4923,-4.4932,-4.4926,-4.4905,-4.4914,-4.4934,-4.4932,-4.4938,-4.4931,-4.4946,-4.4956,-4.4926,-4.4923,-4.4897,-4.4915,-4.4978,-4.4881,-4.488,-4.4898,-4.5033,-4.5057,-4.5069,-4.4957,-4.4958,-4.496,-4.5034,0,-4.5036,-4.5068,-4.5034,-4.5073,-4.5084,-4.5034,-4.5052,-4.5041,-4.5022,-4.5028,-4.5007,-4.5015,-4.4975,-4.4973,-4.4989,-4.4968,-4.5005,-4.4962,-4.497,-4.497,-4.4973,-4.5081,-4.5106,-4.5177,-4.5043,-4.5045,-4.5046,0,-4.5133,-4.5129,-4.5169,-4.5145,-4.5148,-4.5164,-4.5159,-4.5165,-4.5152,-4.5136,-4.5133,-4.5101,-4.5118,-4.5074,-4.5097,-4.5069,-4.507,-4.506,-4.5062,-4.506,-4.5012,-4.5082,-4.5199,-4.5209,-4.506,-4.5059,-4.5058,0,-4.5223,-4.5229,-4.5253,-4.5249,-4.5221,-4.5234,-4.5223,-4.5207,-4.5207,-4.5203,-4.5203,-4.5201,-4.52,-4.5199,-4.5166,-4.5138,-4.5193,-4.5147,-4.518,-4.5181,-4.5194,-4.5193,-4.5312,-4.5196,-4.5196,-4.5196,-4.5196,0,-4.5315,-4.5341,-4.5293,-4.5308,-4.5335,-4.5296,-4.5324,-4.5308,-4.5294,-4.5305,-4.5262,-4.5273,-4.523,-4.5236,-4.5211,-4.5233,-4.5234,-4.5221,-4.5214,-4.5225,-4.5226,-4.5224,-4.5218,-4.5199,-4.5198,-4.5198,-4.5197,0,-4.542,-4.539,-4.5412,-4.5384,-4.5377,-4.5399,-4.5374,-4.5387,-4.5365,-4.5379,-4.538,-4.5346,-4.5351,-4.5318,-4.5318,-4.5301,-4.5334,-4.5319,-4.5339,-4.5334,-4.5369,-4.5365,-4.549,-4.5503,-4.538,-4.5382,-4.5383,0,-4.548,-4.5499,-4.5472,-4.5476,-4.5467,-4.5474,-4.5474,-4.5436,-4.5438,-4.5423,-4.5437,-4.5438,-4.5437,-4.5447,-4.5422,-4.542,-4.5404,-4.5448,-4.5404,-4.5413,-4.5403,-4.5402,-4.5403,-4.5457,-4.5458,-4.546,-4.5461,0,-4.5589,-4.5573,-4.5575,-4.5571,-4.5572,-4.5567,-4.556,-4.5565,-4.5524,-4.5528,-4.5532,-4.5531,-4.5529,-4.5531,-4.5524,-4.5512,-4.548,-4.5475,-4.5482,-4.5493,-4.5503,-4.5496,-4.5363,-4.5472,-4.5471,-4.547,-4.5469,-4.5469,-4.5673,-4.5687,-4.567,-4.5673,-4.5663,-4.5657,-4.5666,-4.5645,-4.5648,-4.5643,-4.5621,-4.5629,-4.5613,-4.5601,-4.5592,-4.5598,-4.5577,-4.5588,-4.5591,-4.5594,-4.5599,-4.5503,-4.5597,-4.5596,-4.5596,-4.5596,-4.5595,0,-4.5779,-4.5765,-4.5768,-4.5759,-4.5761,-4.5729,-4.5719,-4.5723,-4.573,-4.5719,-4.5718,-4.5722,-4.5723,-4.5698,-4.5695,-4.5704,-4.5689,-4.5705,-4.5703,-4.5701,-4.5619,-4.5612,-4.5717,-4.5717,-4.5717,-4.5717,-4.5717,-4.5717,-4.5834,-4.5855,-4.5837,-4.5852,-4.5838,-4.5845,-4.5842,-4.5836,-4.5826,-4.5832,-4.5833,-4.5816,-4.5799,-4.5794,-4.5793,-4.5786,-4.5786,-4.5807,-4.5795,-4.5719,-4.5707,-4.5696,-4.5689,-4.5808,-4.5808,-4.5876,-4.5876,-4.5877]}]]